Volver al catálogo

STRIX-7

ActivoCienciaVLEO
NORAD 69177·PAYLOAD·🇯🇵 Japan

Lanzado May 22, 2026 desde Rocket Lab Launch Complex 1

Loading…

Próximos Pases (próximas 24 horas)

TLE

ActualizadoSource: Space-Track

Época: Sep 14, 2026, 13:52 UTC

1 69177U 26112A   26257.57825797  .00002652  00000-0  21583-3 0  9991
2 69177  44.9067  82.7543 0024837 191.0289 169.0041 15.01958027 17316

Sigue STRIX-7 en tiempo real con AllMySat

Download on the App Store